Regional Weather Roundup
Issued by NWS Wakefield, VA

Home | Current Version | Previous Version | Graphics & Text | Print | Product List | Glossary On
Versions: 1 2 3 4 5 6 7 8 9 10 11 12 13 14 15 16 17 18 19 20 21 22 23 24 25 26 27 28 29 30 31 32 33 34 35 36 37 38 39 40 41 42 43 44 45 46 47 48 49 50
000
ASUS41 KAKQ 040215
RWRAKQ

REGIONAL WEATHER ROUNDUP
NATIONAL WEATHER SERVICE WAKEFIELD VA
1000 PM EDT MON AUG 03 2015

Note: "fair" indicates few or no clouds below 12,000 feet with no
significant weather and/or obstructions to visibility. * = Denotes
station may not report precipitation (e.g., rain,snow,etc.),
thunder or fog.

VAZ042-051-052>054-056-040300-
NORTHERN VIRGINIA

CITY           SKY/WX    TMP DP  RH WIND       PRES   REMARKS
WASH NATIONAL  PTCLDY    85  70  60 S10       29.84R
DULLES         PTCLDY    78  64  61 S7        29.84R
FORT BELVOIR   CLEAR     77  70  78 SE3       29.84R
QUANTICO       NOT AVBL
FREDERICKSBRG* CLEAR     80  68  68 S5        29.85S
STAFFORD*      CLEAR     71  68  90 CALM      29.89S
WARRENTON      CLEAR     78  66  67 S5        29.84F
CULPEPER*      CLEAR     73  64  73 SW5       29.86S
MANASSAS*      CLEAR     73  68  83 S5        29.84R
LEESBURG*      CLEAR     81  68  65 S10       29.85R
WINCHESTER     MOCLDY    81  64  57 SW3       29.84S
FRONT ROYAL*   FAIR      77  64  65 SW3       29.84R
LURAY*         FAIR      79  64  61 SW5       29.87R
$$

VAZ048-049-060>072-079>083-040300-
CENTRAL AND SOUTH CENTRAL VIRGINIA

CITY           SKY/WX    TMP DP  RH WIND       PRES   REMARKS
RICHMOND       PTCLDY    78  71  79 S7        29.88R
CHESTERFIELD*  FAIR      79  63  57 S5        29.90R
PETERSBURG*    CLEAR     78  77  95 S3        29.91R
HANOVER        CLEAR     75  69  81 CALM      29.90R
TAPPAHANNOCK*  CLEAR     77  69  76 S3        29.89R
QUINTON*       FAIR      80  72  77 SE3       29.88R
CHARLOTTSVILLE CLEAR     79  63  57 CALM      29.88R
GORDONSVILLE*  FAIR      72  66  83 CALM      29.87R
ORANGE*        CLEAR     75  64  69 CALM      29.89R
LOUISA*        CLEAR     81  64  57 S3        29.87S
BUMPASS*       FAIR      76  68  76 S6        29.88R
FARMVILLE*     CLEAR     76  66  72 CALM      29.88S
CREWE*         FAIR     N/A N/A N/A CALM      29.90R
FORT PICKETT*  FAIR      74  70  85 CALM      29.91R
CHASE CITY*    FAIR      77  75  94 CALM      29.91S
CLARKSVILLE*   FAIR      73  72  94 CALM      29.91R
SOUTH HILL*    CLEAR     78  71  79 S7        29.98R
LAWRENCEVILLE* FAIR      79  73  83 S3        29.91R
EMPORIA*       PTCLDY    79  72  78 CALM      29.93R
$$

VAZ088>098-040300-
SOUTHEAST VIRGINIA

CITY           SKY/WX    TMP DP  RH WIND       PRES   REMARKS
NORFOLK        CLEAR     81  73  76 S10       29.91R
VIRGINIA BEACH PTCLDY    82  73  74 S10       29.91R
NORFOLK NAVAL  PTCLDY    80  74  81 S9        29.92R
WEST POINT*    CLEAR     83  71  66 S7        29.90R
SALUDA*        FAIR      80  73  81 S9        29.88R
NEWPORT NEWS   CLEAR     80  75  84 S9        29.91R
LANGLEY AFB    CLEAR     80  75  84 S10       29.90R
FORT EUSTIS    CLEAR     81  80  94 S5        29.89R
WILLIAMSBURG*  CLEAR     84  77  79 S9        29.91R
HR EXEC AP*    FAIR      79  73  83 S7        29.94R
FRANKLIN*      CLEAR     80  75  85 S7        29.92R
WAKEFIELD      CLEAR     77  71  82 CALM      29.91R
$$

VAZ020-022-025-037-045-040300-
WEST CENTRAL AND SOUTHWEST VIRGINIA

CITY           SKY/WX    TMP DP  RH WIND       PRES   REMARKS
STAUNTON*      CLEAR     76  62  61 S3        29.92S
WAYNESBORO*    FAIR      73  61  66 SW5       29.92S
HOT SPRINGS VA CLEAR     71  59  64 W13       30.06R
LYNCHBURG      CLEAR     71  63  75 CALM      29.93R
DANVILLE       CLEAR     75  69  81 CALM      29.91R
SOUTH BOSTON*  FAIR      75  74  95 CALM      29.91R
MARTINSVILLE   CLEAR     72  68  87 CALM      29.95S
ROANOKE        CLEAR     80  59  48 CALM      29.95R
BLACKSBURG     CLEAR     71  62  73 CALM      30.04R
DUBLIN*          N/A     73  61  65 SW6       30.02R
MARION*        CLEAR     68  63  83 CALM      30.06R
HILLSVILLE*    CLEAR     74  61  63 S5        30.04R
RICHLANDS*     FAIR      74  60  62 SW5       30.04R
WISE*          CLEAR     72  57  60 S7        30.04S
ABINGDON*      CLEAR     71  61  70 CALM      30.02R
$$

MDZ021>025-VAZ099-100-040300-
SOUTHERN MARYLAND AND THE DELMARVA PENINSULA

CITY           SKY/WX    TMP DP  RH WIND       PRES   REMARKS
PATUXENT RIVER PTCLDY    81  70  69 SW9       29.86R
BAY BRIDGE APT   N/A     82  70  65 S6        29.84R
LEONARDTOWN    PTCLDY    79  70  73 CALM      29.88R
DOVER          CLEAR     81  74  79 S8        29.83R
GEORGETOWN     CLEAR     78  70  76 S8        29.87R
EASTON         PTCLDY    83  76  80 SW7       29.88R
CAMBRIDGE      CLEAR     79  72  78 S3        29.86R
SALISBURY      CLEAR     76  70  82 S6        29.87R
OCEAN CITY     PTCLDY    81  76  84 SW16G23   29.88R
WALLOPS ISLAND CLEAR     79  77  94 S16       29.89R
ACCOMACK*      CLEAR     81  61  50 SW6       29.89R
$$

NCZ012>017-030>032-040300-
NORTH CENTRAL AND EASTERN NORTH CAROLINA

CITY           SKY/WX    TMP DP  RH WIND       PRES   REMARKS
ROANOKE RAPIDS FAIR      79  72  78 S6        29.93R
RALEIGH        PTCLDY    83  69  62 S10       29.93R
ELIZABETH CITY PTCLDY    78  73  84 S12       29.94R
AHOSKIE*       CLEAR     79  73  80 S5        29.93R
EDENTON*         N/A     78  71  78 S10G16    29.95R
CURRITUCK*     PTCLDY    79  72  79 S6        29.94R
KILL DEVIL HLS PTCLDY    78  72  82 SW9       29.95R
MANTEO         PTCLDY    78  73  84 SW18      29.96R
CAPE HATTERAS  MOCLDY    79  73  82 S12       29.99R
TARBORO*         N/A     81  73  76 S5        29.95R
GOLDSBORO      CLEAR     79  73  82 VRB5      29.94R
WASHINGTON     CLEAR     76  71  83 S6        29.97R
GREENVILLE     CLEAR     79  72  78 SW10      29.97R
NEW BERN       PTCLDY    76  73  91 S5        29.98R
WILMINGTON     MOCLDY    77  75  93 S3        29.97R
$$

VAZ048-040300-
ELSEWHERE

CITY           SKY/WX    TMP DP  RH WIND       PRES   REMARKS
HARRISBURG PA  MOCLDY    82  64  54 SW9       29.80R
BALTIMORE      PTCLDY    80  65  59 S3        29.83R
ANNAPOLIS      PTCLDY    82  68  62 S5        29.83S
ANDREWS AFB    CLEAR     80  67  63 S10       29.84R
PHILADELPHIA   PTCLDY    83  66  56 SW8       29.83R
HENDERSON NC   CLEAR     80  66  62 S5        29.93R
GREENSBORO     PTCLDY    81  63  54 S3        29.93R
ROCKY MOUNT    CLEAR     82  72  71 S8        29.94R
$$

VAZ100-040300-
MARINE

STATION/POSITION TIME  TEMP    WIND        PRES    WAVE   SWELL
                       AIR SEA DIR/SP/G            HT/PER HT/PER
                 (UTC) (F)     (DEG/KT/KT) (MB)    (FT/S) (FT/S)
BRANDYWINE LGT   0100   83 78  200/ 12/ 12 1010.7R
CAPE MAY NJ      0100   77 78  170/ 10/ 14 1010.3R
LEWES DE         0100   82 73   CALM  /  4 1010.5R
15NM E FENWICK I 0150   80 80  190/ 17/ 23 1011.5R   5/ 6   2/11
OCEAN-CITY-INLET 0100   79 80  210/ 16/ 19 1010.5R
WACHAPREAGUE VA  0100   81 85  210/ 14/ 19 1011.8R
THOMAS POINT MD  0200   83     200/ 13       N/A
GOOSES REEF MD   0200   84 82  210/ 12/ 14 1011.7R
COVE POINT MD    0100   83     210/  9/ 10 1011.2R
SOLOMONS ISLAND  0100      84                N/A
BISHOPS HEAD MD  0100   83 85  200/ 12/ 14 1009.9R
PINEY POINT MD   0100          220/ 10/ 11   N/A
POTOMAC MD       0200   83 84  220/ 12/ 14 1010.3R   1/ 3
CAMBRIDGE MD     0100   82 85  180/  4/  6 1009.8R
LEWISETTA VA     0100   83 85  210/  9/ 10 1010.6R
RAPPAHANNOCK LGT 0100          200/ 14/ 15 1012.0R
STINGRAY PT      0200   83 83  210/ 12/ 16 1012.1R   1/ 2
YORK RVR RNG VA  0100   82     210/ 10/ 11 1011.2R
YORKTOWN VA      0100   82 84  190/  6/  8 1011.5R
JAMESTOWN VA     0200   81 86  180/ 10/ 12   N/A
DOMINION TERM VA 0100   83     200/ 13/ 16 1011.7S
KIPTOPEKE VA     0100      83  200/ 16/ 18   N/A
CHES BAY BRIDGE  0100   82 82  170/ 13/ 16 1011.6R
CAPE HENRY VA    0100   81     190/  9/ 13   N/A
CHESAPEAKE LGHT  0100   80     200/ 19/ 21 1012.7R
WILLOUBY STN VA  0100   82     200/ 13/ 14 1013.0R
CAPE HENRY BUOY  0128      81                N/A     4/ 6   2/11
1ST LANDING BUOY 0200      81              1012.4R   2/ 4
CAPE CHARLES BUO 0126      78                N/A     3/11   2/11
OFFSHORE WE BUOY 0111      82                N/A     5/ 6   2/12
64NM E OF VA BCH 0150   80 81  210/ 21/ 25 1013.4R   5/ 7   2/11
DUCK PIER NC     0100   79 65  210/ 11/ 15 1012.7R
44100 DUCK FRF   0124      79                N/A     4/ 6
44056 DUCK FRF   0111      69                N/A     2/11
OREGON INLET NC  0100   80 81  200/ 19/ 23 1014.1R
HATTERAS NC      0100   78 80  180/  9/ 16 1014.5R
DIAMOND SHLS NC  0150   81 84  180/ 19/ 23 1015.3R   4/ 7   2/ 7



USA.gov is the U.S. government's official web portal to all federal, state and local government web resources and services.